Regional Weather Roundup
Issued by NWS

Home | Current Version | Previous Version | Text Only | Print | Product List | Glossary Off
Versions: 1 2 3 4 5 6 7 8 9 10 11 12 13 14 15 16 17 18 19 20 21 22 23 24 25 26 27 28 29 30 31 32 33 34 35 36 37 38 39 40 41 42 43 44 45 46 47 48 49 50

000
ASUS43 KLOT 280208
RWRIL

ILLINOIS REGIONAL WEATHER ROUNDUP
NATIONAL WEATHER SERVICE CHICAGO/ROMEOVILLE IL
900 PM CDT THU AUG 27 2015

NOTE: "FAIR" INDICATES FEW OR NO CLOUDS BELOW 12,000 FEET WITH NO
SIGNIFICANT WEATHER AND/OR OBSTRUCTIONS TO VISIBILITY.

* THESE STATIONS ARE NOT UNDER NWS QUALITY CONTROL. THEY ALSO MAY NOT
  REPORT WEATHER SUCH AS PRECIPITATION OR FOG.

ILZ001-002-007-009-015-016-024-280300-
NORTHWEST ILLINOIS

CITY           SKY/WX    TMP DP  RH WIND       PRES   REMARKS
MOLINE         CLEAR     63  59  87 CALM      30.09F
STERLING*      PTCLDY    63  57  82 CALM      30.11R
SAVANNA*       MOCLDY    62  58  88 CALM      30.11F
$$

ILZ003-004-008-010-011-017-018-280300-
NORTH CENTRAL ILLINOIS

CITY           SKY/WX    TMP DP  RH WIND       PRES   REMARKS
ROCKFORD       MOCLDY    64  56  75 CALM      30.14R
FREEPORT*      PTCLDY    57  56  95 CALM      30.15R
ROCHELLE*      CLEAR     59  56  92 CALM      30.13R
DE KALB*       PTCLDY    60  57  88 CALM      30.14R
PERU*          CLEAR     66  57  72 E5        30.12R
$$

ILZ005-006-012>014-019>023-280300-
NORTHEAST ILLINOIS

CITY           SKY/WX    TMP DP  RH WIND       PRES   REMARKS
CHICAGO-OHARE  MOCLDY    66  55  67 E6        30.12S
CHICAGO-MIDWAY PTCLDY    68  56  65 E8        30.12S
AURORA         FAIR      59  56  89 CALM      30.13S
LANSING*       PTCLDY    64  56  78 E3        30.14R
JOLIET*        PTCLDY    61  58  90 CALM      30.12S
WAUKEGAN       PTCLDY    61  55  81 SE3       30.13S
DUPAGE AIRPORT CLEAR     62  55  77 E5        30.12S
KANKAKEE*      PTCLDY    63  58  86 CALM      30.13R
WHEELING       PTCLDY    64  55  72 CALM      30.15R
MORRIS*        FAIR      63  56  79 E5        30.11R
ROMEOVILLE*    PTCLDY    64  55  73 SE5       30.12S
NORTHERLY ISL    N/A     64  58  80 E3          N/A
$$

LMZ740>746-280300-
SOUTHERN LAKE MICHIGAN

STATION/POSITION SKY/WX   TEMP    WIND        PRES    VSBY  WAVE
                          AIR SEA DIR/SP/G                  HT/PER
                          (F)     (DEG/KT/KT) (MB)    (MI)  (FT/S)
SOUTHERN BUOY              66 69  140/  6/  6 1020.8R         0
WILMETTE HARBOR            65 63  280/  4/  6   N/A           1
HARRISON CRIB              66     120/  7/  8   N/A
BURNHAM HARBOR             64      90/  5       N/A
CALUMET HARBOR             67      70/  4/  5   N/A
BURNS HARBOR               66      80/  6/  8 1020.7S
MICHIGAN CITY              65      60/  6/  7   N/A
MICHIGAN CITY 6N           67 71  110/  6/  8   N/A           1
ST. JOSEPH                 66 71  120/  6/  8   N/A           0
$$

ILZ025>027-034>036-040-047-049-050-058-095>099-280300-
WEST-CENTRAL ILLINOIS

CITY           SKY/WX    TMP DP  RH WIND       PRES   REMARKS
QUINCY         CLEAR     65  59  81 E6        30.09R
GALESBURG*     CLEAR     59  57  93 E5        30.11F
MACOMB*        CLEAR     61  59  93 CALM      30.12S
JACKSONVILLE*  CLEAR     64  58  80 S5        30.08S
PITTSFIELD*    PTCLDY    63  59  89 S5        30.09F
$$

ILZ028>032-037-038-041>044-048-051>054-059>061-280300-
CENTRAL ILLINOIS

CITY           SKY/WX    TMP DP  RH WIND       PRES   REMARKS
PONTIAC        PTCLDY    63  61  92 E7        30.11F
BLOOMINGTON    CLEAR     64  60  87 E7        30.11S
DECATUR        CLEAR     68  58  70 S5        30.10R
PEORIA         CLEAR     66  58  75 CALM      30.11R
LACON*         CLEAR     64  58  81 CALM      30.10R
LINCOLN*       CLEAR     66  58  75 CALM      30.09S
SPRINGFIELD    CLEAR     66  59  78 E3        30.09R
TAYLORVILLE    CLEAR     63  59  88 CALM      30.09R
$$

ILZ033-039-045-046-055>057-062-063-280300-
EAST-CENTRAL ILLINOIS

CITY           SKY/WX    TMP DP  RH WIND       PRES   REMARKS
CHAMPAIGN      CLEAR     66  60  81 E6        30.10F
RANTOUL*       CLEAR     68  62  79 E6        30.11S
MATTOON        CLEAR     64  59  83 CALM      30.09S
PARIS*         CLEAR     64  62  93 NE3       30.12R
$$

ILZ079-100>102-280300-
SOUTHWEST ILLINOIS

CITY           SKY/WX    TMP DP  RH WIND       PRES   REMARKS
BELLEVILLE     CLEAR     65  63  92 CALM      30.07S
CAHOKIA*       CLEAR     67  60  78 CALM      30.08R
SPARTA*        CLEAR     65  62  88 CALM      30.10S
$$

ILZ064>066-069>071-074>076-080>082-084>086-088>090-092>094-280300-
SOUTH-CENTRAL ILLINOIS

CITY           SKY/WX    TMP DP  RH WIND       PRES   REMARKS
CARBONDALE     CLEAR     64  61  90 CALM      30.09R
CAIRO*         CLEAR     62  62  99 CALM      30.08R
EFFINGHAM*     CLEAR     63  60  88 CALM      30.11S
MARION         CLEAR     66  63  88 CALM      30.10R
MT. VERNON     CLEAR     63  55  77 CALM      30.11R
CENTRALIA*     CLEAR     61  60  98 CALM      30.09R
SALEM*         CLEAR     64  61  91 CALM      30.10R
METROPOLIS*    CLEAR     64  64  99 CALM      30.09S
$$

ILZ067-068-072-073-078-083-087-091-280300-
SOUTHEAST ILLINOIS

CITY           SKY/WX    TMP DP  RH WIND       PRES   REMARKS
LAWRENCEVILLE  CLEAR     67  61  81 CALM      30.10R
FLORA*         CLEAR     63  59  89 CALM      30.10S
FAIRFIELD*     CLEAR     65  62  87 CALM      30.09R
HARRISBURG*    CLEAR     66  62  88 CALM      30.09S
ROBINSON*      CLEAR     62  60  93 CALM      30.11S
CARMI*         CLEAR     64  62  91 CALM      30.10R
$$

ABBREVIATIONS USED IN REMARKS
   TC - TEMPERATURE IN CELSIUS
  WCI - WIND CHILL INDEX
   HX - HEAT INDEX
  VSB - VISIBILITY
$$




USA.gov is the U.S. government's official web portal to all federal, state and local government web resources and services.